Lake Clear, NY

2:57 AM EST on February 10, 2016 (GMT -0500)
Adirondack Regional

Weather History for KSLK - March, 2011

Change the Weather History Date:

Wednesday, March 23, 2011

  Actual Average Record
Temperature  
Mean Temperature 14 °F 27 °F  
Max Temperature 28 °F 39 °F 64 °F (2012)
Min Temperature 0 °F 16 °F -17 °F (2014)
Degree Days  
Heating Degree Days 51 38  
Month to date heating degree days 973  
Since 1 July heating degree days 7678  
Cooling Degree Days 0 0  
Month to date cooling degree days 0  
Year to date cooling degree days 0  
Moisture  
Dew Point 7 °F    
Average Humidity 75    
Maximum Humidity 92    
Minimum Humidity 47    
Precipitation  
Precipitation 0.00 in 0.08 in 1.05 in (1977)
Month to date precipitation 1.57  
Year to date precipitation 5.31  
Sea Level Pressure  
Sea Level Pressure 29.88 in    
Wind  
Wind Speed 2 mph (NE)    
Max Wind Speed 9 mph    
Max Gust Speed -    
Visibility 10 miles    
Events      
T = Trace of Precipitation, MM = Missing Value Source: NWS Daily Summary

Daily Weather History Graph

Daily Weather History Graph

Search for Another Location

Airport or City:

Trip Planner

Search our weather history database for the weather conditions in past years. The results will help you decide how hot, cold, wet, or windy it might be!

Date:

Astronomy

Mar. 23, 2011 Rise Set
Actual Time 6:55 AM EDT 7:12 PM EDT
Civil Twilight 6:26 AM EDT 7:41 PM EDT
Nautical Twilight 5:51 AM EDT 8:15 PM EDT
Astronomical Twilight 5:16 AM EDT 8:51 PM EDT
Moon No Moon Rise 8:49 AM EDT (3/23)
Length of Visible Light 13h 15m
Length of Day
12h 17m
Waning Gibbous, 79% of the Moon is Illuminated
Mar 23
Waning Gibbous
Mar 26
Last Quarter
Apr 3
New
Apr 11
First Quarter
Apr 17
Full

Hourly Weather History & Observations

Time (EDT) Temp. Windchill Dew Point Humidity Pressure Visibility Wind Dir Wind Speed Gust Speed Precip Events Conditions
12:51 AM 7.0 °F - 5.0 °F 92% 30.01 in 10.0 mi Calm Calm - N/A   Clear
1:51 AM 7.0 °F - 5.0 °F 92% 30.01 in 10.0 mi Calm Calm - N/A   Clear
2:51 AM 1.0 °F -6.7 °F -0.9 °F 91% 30.00 in 10.0 mi North 3.5 mph - N/A   Clear
3:51 AM 3.9 °F - 1.0 °F 88% 29.99 in 10.0 mi Calm Calm - N/A   Clear
4:51 AM 3.9 °F - 1.0 °F 88% 29.99 in 10.0 mi Calm Calm - N/A   Clear
5:51 AM 1.0 °F - -2.0 °F 87% 29.97 in 10.0 mi Calm Calm - N/A   Clear
6:43 AM 1.4 °F - -2.2 °F 85% 29.90 in 10.0 mi Calm Calm - N/A   Mostly Cloudy
6:51 AM 1.9 °F - -0.9 °F 88% 29.99 in 10.0 mi Calm Calm - N/A   Mostly Cloudy
7:17 AM -0.4 °F - -2.2 °F 92% 29.90 in 6.0 mi Calm Calm - N/A   Overcast
7:32 AM 1.4 °F - -0.4 °F 92% 29.90 in 10.0 mi Calm Calm - N/A   Overcast
7:44 AM 3.2 °F - -0.4 °F 85% 29.89 in 10.0 mi Calm Calm - N/A   Scattered Clouds
7:51 AM 3.9 °F - 1.0 °F 88% 29.98 in 10.0 mi Calm Calm - N/A   Partly Cloudy
8:51 AM 14.0 °F 5.1 °F 10.0 °F 84% 29.95 in 10.0 mi NE 5.8 mph - N/A   Clear
9:51 AM 17.1 °F 11.7 °F 10.9 °F 77% 29.93 in 10.0 mi NNE 3.5 mph - N/A   Partly Cloudy
10:51 AM 19.9 °F - 10.0 °F 65% 29.89 in 10.0 mi Calm Calm - N/A   Clear
11:51 AM 21.9 °F 17.2 °F 10.9 °F 63% 29.89 in 10.0 mi NNE 3.5 mph - N/A   Clear
12:51 PM 25.0 °F 19.3 °F 12.9 °F 60% 29.86 in 10.0 mi NE 4.6 mph - N/A   Clear
1:51 PM 27.0 °F 20.5 °F 12.0 °F 53% 29.83 in 10.0 mi Variable 5.8 mph - N/A   Clear
2:51 PM 28.0 °F 22.8 °F 10.9 °F 49% 29.81 in 10.0 mi East 4.6 mph - N/A   Clear
3:51 PM 28.0 °F 20.0 °F 10.0 °F 47% 29.78 in 10.0 mi ENE 8.1 mph - N/A   Clear
4:51 PM 28.0 °F 20.8 °F 10.0 °F 47% 29.77 in 10.0 mi East 6.9 mph - N/A   Clear
5:51 PM 26.1 °F 16.8 °F 10.9 °F 53% 29.78 in 10.0 mi ENE 9.2 mph - N/A   Clear
6:51 PM 25.0 °F 16.3 °F 12.9 °F 60% 29.80 in 10.0 mi ENE 8.1 mph - N/A   Clear
7:51 PM 23.0 °F 14.7 °F 12.9 °F 65% 29.80 in 10.0 mi ENE 6.9 mph - N/A   Clear
8:51 PM 21.9 °F 12.5 °F 14.0 °F 72% 29.78 in 10.0 mi ENE 8.1 mph - N/A   Clear
9:51 PM 17.1 °F 7.6 °F 10.9 °F 77% 29.77 in 10.0 mi NE 6.9 mph - N/A   Clear
10:51 PM 17.1 °F 11.7 °F 12.0 °F 81% 29.74 in 10.0 mi ENE 3.5 mph - N/A   Clear
11:51 PM 15.1 °F - 10.0 °F 80% 29.73 in 10.0 mi Calm Calm - N/A   Clear